Temperature
21 21 21 21 22 22 22 22 22 23 25 24 23 22 23 23 23 23 22 22 22 22 22 22 22 21 21 20 20 20 19 19 18 18 18 17 17 17 16 16 16 16 15 15
21 21 22 22 22 22 22 22 22 22 24 24 23 22 23 23 23 23 23 23 22 22 22 22 21 21 21 20 20 20 19 19 18 18 18 17 17 17 16 16 16 15 15 15
21 22 23 22 22 22 22 21 21 21 22 23 23 22 22 24 24 23 23 23 23 23 22 22 21 21 21 20 20 20 20 19 18 18 18 17 17 17 16 16 16 15 15 15
21 22 22 22 22 22 21 22 22 22 21 21 22 20 22 23 23 23 23 23 23 23 23 22 22 21 21 21 20 20 20 19 19 18 18 17 17 17 17 16 16 16 15 15
21 22 22 22 22 22 21 22 22 22 21 21 22 21 22 23 22 23 24 24 23 23 23 22 22 21 21 21 20 20 20 19 18 18 18 17 17 17 17 16 16 16 16 15
22 23 22 22 22 22 22 21 21 21 21 20 21 21 22 23 23 24 24 24 24 23 23 22 22 21 21 20 20 20 19 19 18 18 18 17 17 17 17 16 16 16 16 16
21 22 23 23 22 22 21 20 19 19 19 20 22 22 23 24 25 25 25 24 24 23 23 22 21 21 20 20 20 19 19 19 18 18 18 17 17 17 17 17 16 16 16 16
20 20 22 22 22 21 21 21 19 18 19 21 23 22 24 26 26 26 25 24 24 23 23 22 21 20 20 20 19 19 19 19 18 18 18 18 17 17 17 17 17 16 16 16
20 21 23 23 23 22 21 21 21 20 20 20 22 23 25 26 25 25 25 24 23 23 22 22 21 20 20 20 19 19 19 19 18 18 18 18 17 17 17 17 17 16 16 16
22 20 22 23 23 23 22 21 21 20 19 20 22 23 23 24 24 25 24 24 23 23 22 21 21 20 20 20 19 19 19 19 18 18 18 18 17 17 17 17 17 17 16 16
23 21 21 22 22 22 22 22 21 20 20 19 20 22 26 25 25 25 24 24 24 23 22 21 21 20 20 19 19 19 19 19 18 18 18 18 17 17 17 17 16 16 16 16
23 21 21 22 23 24 23 22 22 20 20 20 20 21 25 25 25 25 25 24 24 23 22 21 21 20 19 19 19 19 19 19 18 18 18 18 17 17 17 17 16 16 16 16
23 22 20 20 21 23 23 23 23 22 21 20 20 21 25 25 25 25 25 24 23 23 22 21 21 20 19 19 19 19 19 19 18 18 18 18 17 17 17 16 16 16 16 16
23 22 21 20 20 22 22 23 23 22 21 21 22 22 24 25 25 25 25 24 23 22 22 21 21 20 20 19 19 19 19 19 19 18 18 17 17 17 17 17 16 16 16 16
23 22 22 22 23 23 23 23 23 23 23 22 23 23 25 25 25 25 25 24 23 22 22 21 20 20 20 19 19 19 19 19 19 18 18 18 17 17 17 17 16 16 16 15
23 23 23 23 24 24 24 24 24 24 24 24 24 24 26 26 26 25 25 24 23 23 22 21 21 20 20 19 19 19 19 19 18 18 18 18 17 17 17 16 16 16 15 15
24 23 22 23 24 24 23 24 25 24 25 24 24 25 26 26 25 25 25 24 24 23 22 21 21 20 20 19 19 19 19 19 18 18 18 18 17 17 17 16 16 16 15 15
24 24 23 22 23 22 24 26 26 25 25 25 25 26 26 26 26 25 25 24 24 23 22 22 21 20 20 20 19 19 19 19 18 18 18 18 17 17 17 16 16 16 15 15
25 24 23 23 22 23 25 26 26 25 25 26 26 26 26 26 26 25 25 24 24 23 23 22 21 21 20 20 19 19 19 18 18 18 18 18 17 17 17 16 16 15 15 15
24 24 23 22 22 22 24 26 26 25 24 26 26 26 26 26 24 24 24 24 24 23 23 22 22 21 21 20 20 19 19 18 18 18 18 18 17 17 17 16 16 15 15 14
22 22 22 22 22 23 25 25 25 23 23 25 25 25 25 25 24 24 24 24 23 23 22 22 22 21 21 20 20 19 19 19 19 18 18 18 17 17 17 16 16 15 15 14
23 23 22 22 22 22 24 24 24 24 25 25 25 24 24 24 24 24 23 23 22 22 22 22 21 21 20 20 20 19 19 19 18 18 18 18 17 17 16 16 16 15 15 14
24 24 23 23 23 23 24 23 23 23 24 24 24 24 24 23 23 23 23 22 22 21 21 21 21 20 20 20 19 19 19 19 18 18 18 17 17 17 16 16 16 15 15 14
25 25 24 23 24 24 23 23 23 23 23 23 23 23 23 23 23 22 22 21 21 21 21 20 20 20 20 19 19 19 19 18 18 18 17 17 17 16 16 16 15 15 15 14
23 24 24 23 23 23 23 22 22 22 22 22 22 22 22 22 22 22 21 21 20 20 20 20 20 19 19 19 19 18 18 18 18 17 17 17 16 16 16 16 15 15 15 15
23 23 22 22 23 23 22 22 21 21 21 21 21 21 21 21 21 21 21 20 20 20 19 19 19 19 19 18 18 18 18 18 17 17 17 16 16 16 16 15 15 14 14 14
Wind_Speed
6 6 6 7 8 6 6 6 7 7 9 9 9 10 12 13 12 11 11 11 10 10 11 11 9 8 7 5 6 8 8 7 5 2 3 3 3 3 4 4 5 6 8 7
5 6 6 4 5 6 5 5 5 3 7 7 7 10 11 12 13 12 13 13 12 11 11 11 10 9 7 6 6 8 7 7 6 3 3 3 3 4 4 2 4 8 9 9
6 4 5 5 5 6 5 4 4 4 3 4 5 7 10 12 12 12 12 12 13 13 14 13 11 9 8 6 6 7 8 7 6 5 4 4 3 2 3 4 3 5 7 8
3 4 5 6 5 5 4 4 4 5 5 4 7 5 9 12 12 13 13 11 11 11 13 13 11 10 9 7 6 7 8 7 7 6 4 4 3 3 3 3 3 3 6 7
4 5 6 7 6 5 3 3 4 5 4 5 7 5 7 13 14 15 14 12 11 11 12 13 12 10 8 7 6 6 8 8 7 6 4 2 3 3 3 3 3 4 4 4
6 4 5 5 5 4 3 3 4 4 3 7 11 8 7 13 18 18 16 14 13 12 12 12 11 9 8 7 7 6 8 8 6 5 5 4 4 4 4 3 2 3 3 2
6 7 6 5 5 6 6 4 2 3 4 6 9 8 7 12 17 18 18 16 14 12 12 12 12 11 9 9 8 8 8 7 6 4 5 5 4 4 4 3 3 3 3 3
5 6 9 8 8 6 9 8 3 3 4 3 7 7 5 10 12 14 15 15 14 13 12 13 13 12 10 10 9 9 9 8 6 4 3 5 4 3 3 3 3 3 4 4
2 3 8 10 9 7 6 7 5 3 4 4 5 5 4 8 11 12 14 15 15 14 13 13 13 12 11 11 9 9 9 8 7 5 5 5 4 4 4 2 3 4 4 4
3 3 5 8 7 7 6 5 3 3 2 3 5 7 7 12 13 13 13 14 15 15 14 14 13 12 11 10 9 9 9 9 8 6 5 5 5 5 3 3 4 4 4 4
6 4 5 7 8 9 8 7 4 2 2 2 1 2 4 13 13 14 13 13 14 15 14 13 12 12 12 11 10 9 9 8 8 7 6 6 4 4 4 3 3 2 3 4
6 2 4 7 8 8 9 8 6 3 3 2 1 3 2 7 10 12 13 13 13 13 13 13 13 12 12 12 11 9 9 8 7 7 7 6 6 4 5 4 3 1 2 3
3 3 3 3 5 7 9 10 9 6 4 3 2 3 2 6 7 10 12 12 12 13 13 12 12 12 12 11 11 9 9 9 8 7 7 6 6 5 5 6 4 2 3 3
3 4 4 5 5 7 10 11 11 8 5 5 4 5 5 6 8 9 11 13 13 13 13 13 11 11 12 11 11 10 10 9 9 7 7 6 6 5 4 5 4 3 3 3
5 7 7 8 8 9 9 11 12 12 11 7 6 6 5 6 8 10 12 13 14 15 14 14 13 12 12 11 11 11 10 10 9 8 7 6 6 5 5 5 3 3 3 4
8 8 9 8 9 9 9 11 13 14 12 11 10 9 4 4 7 9 12 13 14 14 15 15 14 14 13 12 11 12 11 10 9 8 7 7 6 6 6 6 4 3 3 4
9 9 8 8 8 8 9 11 13 12 12 10 9 8 4 5 6 10 11 12 13 14 14 14 14 14 13 14 13 13 12 11 10 9 8 7 7 7 6 6 5 4 4 4
9 9 6 7 8 8 6 5 6 7 7 7 7 5 3 4 5 6 8 11 12 13 13 14 13 12 12 13 12 12 12 12 11 10 9 9 8 7 7 6 6 5 4 4
8 7 5 6 7 7 5 3 4 5 5 6 6 5 4 3 4 5 7 9 11 11 11 12 13 13 13 13 14 13 13 12 11 11 10 10 9 8 8 7 6 5 5 4
6 7 6 6 6 5 1 5 4 1 3 1 2 2 2 4 4 3 5 7 7 8 9 11 12 12 12 13 13 13 13 12 12 11 11 10 9 9 8 8 6 5 4 4
8 7 8 8 7 4 2 4 2 2 1 3 2 2 2 2 2 3 5 5 5 6 7 9 11 11 11 12 12 12 12 12 10 10 10 9 9 9 8 7 5 5 5 4
8 7 8 8 7 3 3 2 1 4 5 4 4 3 2 2 3 5 5 5 6 6 6 8 9 9 10 11 12 12 11 10 10 11 10 9 8 8 7 7 6 5 5 5
6 4 2 2 1 3 3 4 5 5 5 6 5 5 4 2 2 2 5 5 6 7 7 6 8 9 9 10 10 11 9 11 12 11 10 9 8 7 7 7 6 5 5 5
4 2 2 1 2 3 4 4 4 4 5 6 5 4 4 3 1 2 5 5 5 6 7 7 8 9 9 9 8 8 10 12 12 11 10 9 9 8 7 6 6 5 5 5
2 1 2 2 1 1 2 3 3 4 4 4 4 4 3 3 2 2 4 5 5 5 6 7 8 8 8 8 8 8 11 12 11 10 9 8 8 8 7 6 4 5 5 6
4 3 3 2 2 1 2 4 5 4 4 3 3 3 2 2 1 1 3 4 5 5 5 6 7 7 8 9 9 9 10 11 11 10 9 7 7 7 6 6 4 3 5 7
Wind_Direction
207 223 226 221 225 261 264 236 213 191 184 187 177 172 177 180 179 176 175 174 178 171 165 152 140 130 131 133 128 128 138 131 122 111 100 95 90 84 73 71 44 39 42 39
209 230 237 233 233 252 252 228 200 178 197 187 182 182 189 186 185 185 183 179 177 171 159 151 151 154 155 152 157 145 129 120 113 105 105 110 95 93 94 80 56 47 44 27
234 219 205 214 223 228 235 227 204 181 211 193 190 194 191 193 189 186 193 186 182 175 161 159 162 159 153 164 169 136 126 125 122 108 76 73 73 86 101 94 64 51 53 41
245 245 215 209 218 225 228 227 230 189 201 213 204 209 206 193 191 189 191 191 189 177 163 162 163 158 163 169 158 133 125 119 110 109 97 107 106 92 84 102 116 90 68 56
234 214 215 214 217 215 223 229 225 209 221 249 225 217 217 192 193 194 192 193 187 174 163 162 161 159 161 150 129 117 112 110 107 109 113 97 94 102 98 98 103 100 86 78
246 221 217 223 207 205 183 213 225 224 241 243 231 223 216 198 195 192 190 188 183 173 167 159 152 146 143 133 124 117 111 110 117 133 142 128 114 112 105 100 104 114 114 96
220 213 210 211 195 186 192 191 191 197 215 239 219 225 228 199 194 189 185 182 178 171 165 157 153 152 151 146 141 132 126 128 142 163 160 141 133 128 121 121 104 96 106 87
218 209 198 201 206 200 206 208 205 211 217 239 208 220 216 188 183 179 176 173 173 169 164 159 157 156 157 154 151 148 143 146 156 170 150 121 114 98 93 88 107 88 92 98
236 233 195 194 202 209 209 219 232 268 270 244 214 191 158 161 164 170 169 168 170 168 163 161 158 160 160 157 156 154 151 154 159 164 131 114 110 97 102 96 93 97 97 107
222 233 197 182 199 214 226 223 220 219 254 238 220 202 180 169 170 171 171 169 168 168 166 162 160 159 158 156 159 161 160 157 156 154 141 126 108 102 92 83 75 92 96 82
226 214 193 189 203 210 212 222 219 224 247 276 247 243 194 173 172 171 173 172 167 165 162 160 159 158 154 154 161 163 160 154 154 148 131 126 126 129 119 97 89 86 126 134
216 221 216 215 214 220 220 225 220 227 245 224 277 293 285 164 167 168 171 169 163 159 157 157 156 157 157 161 166 165 159 151 149 144 142 150 149 155 144 132 132 121 80 88
235 197 198 221 221 218 224 226 231 238 257 253 215 239 232 154 157 163 162 160 157 156 156 156 157 160 161 163 165 160 157 151 147 150 158 157 155 163 149 138 135 120 90 76
281 250 214 220 240 218 222 222 220 232 244 257 233 226 219 173 162 160 158 160 159 162 161 161 161 162 163 165 166 161 158 152 154 158 160 156 152 154 142 124 133 124 100 73
238 260 251 240 237 227 223 224 218 227 241 258 271 256 220 180 170 167 165 164 165 168 168 168 168 168 166 166 168 162 157 154 156 157 159 158 149 139 123 114 112 101 97 92
226 264 274 263 241 235 233 225 228 232 239 246 255 264 225 190 173 171 171 170 171 173 173 173 173 173 172 170 171 160 156 156 156 159 160 153 147 136 132 134 131 110 92 83
220 242 269 278 259 238 246 231 225 227 231 238 246 256 213 195 184 177 174 175 177 177 176 175 177 178 177 175 174 165 161 160 162 163 158 152 150 143 147 142 129 123 114 98
238 246 256 270 268 255 252 213 201 218 236 238 249 264 243 203 170 166 168 174 180 178 176 176 177 177 175 173 171 163 159 163 167 166 159 156 153 147 146 142 145 149 141 130
233 250 260 259 258 268 254 196 187 208 240 238 237 240 220 184 159 173 183 183 182 180 178 177 178 176 174 174 170 164 164 168 171 168 161 159 157 156 157 160 164 163 155 152
223 245 253 269 271 267 321 105 105 207 255 274 239 217 176 155 174 178 166 167 169 167 169 171 172 172 173 171 167 167 169 172 174 166 160 159 160 161 165 167 166 154 147 152
202 220 236 256 266 270 73 105 144 229 37 35 53 55 106 142 134 118 120 135 149 153 159 162 166 169 168 164 164 170 172 174 165 151 149 152 157 160 161 160 153 147 148 154
208 211 221 231 242 243 100 136 68 36 25 39 54 57 66 79 76 102 121 132 142 144 152 157 160 160 157 159 164 173 174 161 145 142 146 150 154 161 157 147 151 152 152 163
222 225 233 228 143 99 84 72 56 25 16 29 38 39 37 60 65 103 134 142 148 152 156 158 154 153 155 160 167 174 163 146 143 145 150 153 153 152 149 154 162 164 164 174
222 181 216 258 123 108 90 72 61 42 18 16 22 30 26 29 52 125 140 144 152 159 157 156 152 157 163 166 167 163 147 145 148 154 159 161 162 160 160 164 171 174 178 185
304 261 226 241 248 128 105 83 49 39 29 19 14 18 17 10 24 118 140 145 152 151 147 154 165 168 168 164 164 157 151 151 155 160 164 168 166 164 167 167 173 178 184 184
271 271 240 239 314 340 70 68 44 28 18 14 8 5 10 5 354 109 132 140 150 153 156 162 167 169 172 168 169 163 157 157 162 168 171 171 168 166 167 165 170 167 173 174
Height
1503 1505 1506 1504 1502 1503 1503 1505 1506 1503 1499 1504 1509 1513 1514 1515 1518 1521 1525 1527 1530 1534 1537 1539 1542 1545 1548 1550 1551 1552 1553 1554 1555 1556 1557 1557 1557 1557 1556 1556 1555 1555 1555 1554
1504 1506 1502 1500 1500 1501 1503 1506 1507 1504 1499 1503 1509 1512 1512 1513 1516 1519 1522 1525 1528 1531 1535 1538 1542 1545 1547 1549 1551 1553 1554 1555 1556 1557 1557 1558 1558 1558 1557 1557 1557 1556 1556 1555
1504 1501 1499 1500 1502 1503 1504 1507 1507 1509 1505 1504 1510 1516 1513 1511 1513 1517 1519 1522 1526 1529 1533 1537 1540 1544 1547 1549 1551 1553 1554 1555 1556 1557 1558 1558 1559 1559 1559 1558 1558 1558 1557 1556
1502 1499 1499 1501 1503 1503 1509 1503 1505 1506 1512 1515 1512 1526 1514 1509 1511 1514 1517 1520 1523 1526 1530 1534 1539 1542 1546 1548 1551 1553 1554 1555 1556 1557 1558 1559 1559 1560 1560 1560 1559 1559 1558 1558
1502 1499 1500 1502 1502 1502 1506 1502 1504 1506 1511 1515 1511 1520 1515 1506 1511 1510 1513 1517 1520 1524 1528 1532 1537 1540 1544 1547 1550 1552 1554 1555 1556 1557 1558 1559 1560 1560 1561 1561 1561 1561 1560 1559
1498 1497 1498 1499 1499 1501 1502 1505 1507 1508 1513 1526 1513 1516 1514 1502 1502 1504 1508 1513 1517 1522 1526 1531 1535 1539 1543 1546 1549 1551 1553 1554 1556 1557 1558 1559 1560 1561 1561 1561 1562 1562 1561 1561
1500 1497 1496 1497 1501 1502 1504 1513 1525 1529 1530 1522 1503 1508 1502 1489 1490 1496 1502 1508 1514 1519 1524 1528 1533 1537 1541 1544 1547 1550 1552 1554 1556 1557 1559 1560 1560 1561 1561 1562 1562 1563 1563 1562
1505 1505 1495 1495 1499 1503 1504 1509 1524 1533 1529 1516 1501 1504 1491 1482 1485 1491 1498 1504 1511 1516 1521 1526 1530 1535 1539 1543 1546 1549 1551 1553 1555 1557 1559 1560 1561 1561 1562 1563 1563 1564 1564 1563
1502 1502 1490 1491 1493 1497 1503 1506 1505 1516 1517 1519 1505 1494 1485 1480 1484 1489 1495 1501 1507 1513 1519 1524 1528 1533 1537 1541 1544 1547 1550 1552 1554 1557 1559 1560 1561 1562 1562 1563 1564 1564 1564 1564
1493 1501 1491 1490 1492 1494 1497 1500 1506 1516 1525 1523 1507 1498 1493 1486 1486 1488 1493 1499 1505 1511 1516 1521 1526 1530 1535 1538 1542 1546 1549 1551 1554 1556 1558 1559 1560 1561 1562 1563 1564 1564 1565 1565
1487 1497 1496 1492 1495 1497 1497 1500 1502 1508 1512 1521 1519 1504 1476 1479 1481 1486 1491 1497 1502 1508 1513 1519 1524 1529 1533 1537 1541 1544 1547 1550 1552 1555 1557 1558 1560 1561 1562 1563 1563 1564 1565 1565
1484 1493 1499 1493 1487 1486 1490 1493 1497 1512 1512 1511 1516 1506 1475 1475 1478 1483 1489 1495 1500 1506 1511 1517 1522 1527 1531 1535 1539 1542 1545 1548 1551 1553 1555 1557 1559 1560 1561 1562 1563 1564 1565 1566
1482 1491 1505 1504 1498 1490 1489 1489 1490 1495 1501 1506 1513 1505 1475 1476 1478 1482 1487 1493 1499 1504 1510 1515 1520 1525 1529 1533 1536 1540 1543 1546 1549 1552 1554 1556 1558 1559 1561 1562 1563 1564 1565 1566
1482 1486 1497 1506 1499 1489 1490 1487 1487 1492 1501 1502 1499 1495 1482 1478 1479 1483 1487 1492 1497 1503 1508 1513 1518 1522 1527 1531 1534 1538 1541 1544 1547 1550 1552 1555 1556 1558 1560 1561 1562 1563 1564 1565
1480 1485 1484 1483 1480 1481 1481 1482 1483 1488 1489 1494 1491 1487 1480 1476 1478 1481 1486 1491 1496 1501 1506 1511 1515 1520 1524 1528 1532 1536 1539 1542 1545 1548 1550 1553 1555 1557 1558 1560 1561 1562 1563 1564
1478 1481 1479 1479 1474 1474 1477 1477 1478 1480 1481 1483 1483 1481 1473 1474 1477 1480 1484 1488 1493 1498 1503 1508 1512 1517 1521 1525 1529 1533 1536 1539 1542 1545 1548 1551 1553 1555 1557 1558 1560 1561 1562 1563
1474 1478 1482 1483 1472 1474 1480 1471 1471 1473 1472 1476 1480 1476 1470 1473 1475 1478 1481 1485 1490 1495 1499 1504 1509 1513 1517 1522 1526 1529 1533 1536 1540 1543 1546 1549 1551 1553 1555 1556 1558 1559 1560 1561
1470 1473 1478 1481 1480 1491 1472 1458 1461 1466 1467 1467 1468 1467 1468 1470 1473 1476 1479 1483 1487 1492 1497 1501 1506 1510 1515 1519 1523 1527 1530 1534 1537 1541 1543 1546 1548 1550 1552 1554 1556 1557 1558 1559
1465 1470 1476 1479 1483 1478 1464 1457 1458 1464 1467 1463 1464 1465 1467 1469 1472 1476 1478 1481 1485 1489 1493 1497 1502 1507 1512 1516 1520 1524 1527 1531 1534 1538 1540 1543 1546 1548 1550 1552 1553 1555 1556 1557
1465 1467 1474 1477 1484 1485 1468 1457 1458 1463 1470 1462 1462 1464 1466 1468 1474 1476 1476 1479 1482 1486 1490 1495 1499 1504 1509 1513 1517 1521 1524 1528 1531 1534 1537 1540 1543 1545 1547 1549 1551 1553 1554 1555
1469 1471 1475 1478 1480 1472 1461 1459 1460 1474 1473 1463 1463 1464 1466 1468 1471 1474 1475 1478 1481 1484 1488 1492 1496 1501 1505 1510 1514 1518 1521 1524 1528 1531 1534 1537 1540 1543 1545 1547 1549 1550 1551 1553
1462 1468 1471 1472 1479 1477 1461 1460 1464 1468 1464 1464 1464 1466 1467 1469 1470 1472 1475 1477 1480 1482 1485 1489 1493 1497 1502 1506 1511 1515 1518 1522 1525 1528 1531 1534 1537 1540 1542 1544 1545 1547 1549 1550
1454 1457 1459 1462 1467 1463 1461 1463 1465 1466 1466 1466 1466 1467 1468 1469 1471 1473 1474 1476 1479 1481 1484 1488 1491 1495 1499 1503 1508 1512 1515 1519 1522 1525 1528 1531 1534 1536 1538 1540 1542 1544 1545 1546
1449 1450 1455 1458 1459 1460 1462 1464 1465 1466 1467 1467 1468 1468 1469 1470 1471 1472 1474 1476 1478 1480 1483 1486 1490 1493 1497 1501 1505 1509 1512 1515 1518 1522 1525 1528 1530 1533 1535 1537 1539 1540 1541 1543
1451 1452 1454 1458 1459 1460 1461 1463 1465 1466 1467 1468 1468 1468 1469 1470 1471 1472 1473 1475 1477 1479 1482 1485 1488 1491 1495 1498 1502 1506 1509 1512 1515 1518 1522 1524 1527 1529 1531 1533 1535 1536 1538 1539
1452 1454 1457 1459 1459 1460 1462 1463 1465 1466 1467 1468 1468 1469 1469 1470 1470 1471 1473 1474 1476 1478 1480 1483 1486 1489 1493 1496 1499 1503 1506 1508 1512 1515 1517 1520 1522 1525 1527 1529 1531 1532 1534 1535